Volver al catálogo

STARLINK-35038

ActivoComunicacionesVLEO
NORAD 65482·PAYLOAD·🇺🇸 United States

Lanzado Sep 3, 2025 desde Cape Canaveral Space Force Station

Loading…

Próximos Pases (próximas 24 horas)

TLE

ActualizadoSource: CelesTrak SupGP

Época: Sep 14, 2026, 22:57 UTC

1 65482C 25195AA  26257.95673611  .00012439  00000+0  36760-3 0  2577
2 65482  53.1584  95.3145 0001315  85.6883 276.2342 15.34376984    15

Sigue STARLINK-35038 en tiempo real con AllMySat

Download on the App Store